N850SB KDWH-KNEW

Flight info

Callsign N850SB
Flight time N/A
Altitude 25000
Route MMALT7 GUSTI AWDAD AWDAD1
Aircraft TBM8/L-SDFGRWY/S

Departure

Time 2026-04-25 01:09
Airport David Wayne Hooks Memorial Airport (KDWH)

Arrival

Time N/A
Airport Lakefront Airport (KNEW)
Time Latitude Longitude Altitude Speed Heading
2026-04-25 01:00 30.06974 -95.55131 149 ft 0 kts 271°
2026-04-25 01:05 30.06974 -95.55132 149 ft 1 kts 271°
2026-04-25 01:05 30.06933 -95.55158 148 ft 12 kts 180°
2026-04-25 01:06 30.06843 -95.55156 147 ft 9 kts 179°
2026-04-25 01:06 30.06754 -95.55159 144 ft 20 kts 183°
2026-04-25 01:06 30.06619 -95.55160 143 ft 14 kts 180°
2026-04-25 01:06 30.06540 -95.55159 145 ft 10 kts 179°
2026-04-25 01:07 30.06481 -95.55178 147 ft 9 kts 222°
2026-04-25 01:07 30.06442 -95.55242 145 ft 10 kts 239°
2026-04-25 01:07 30.06426 -95.55289 144 ft 5 kts 257°
2026-04-25 01:07 30.06415 -95.55344 144 ft 5 kts 216°
2026-04-25 01:08 30.06367 -95.55341 145 ft 23 kts 170°
2026-04-25 01:08 30.06008 -95.55289 149 ft 79 kts 173°
2026-04-25 01:08 30.05345 -95.55202 312 ft 106 kts 174°
2026-04-25 01:08 30.04564 -95.55122 667 ft 121 kts 173°
2026-04-25 01:09 30.03684 -95.54975 1049 ft 132 kts 174°
2026-04-25 01:09 30.02744 -95.54823 1444 ft 142 kts 173°
2026-04-25 01:09 30.01735 -95.54640 1832 ft 151 kts 173°
2026-04-25 01:09 30.00683 -95.54450 2050 ft 165 kts 173°
2026-04-25 01:10 29.99500 -95.54251 2034 ft 177 kts 174°
2026-04-25 01:10 29.98252 -95.54103 2025 ft 183 kts 176°
2026-04-25 01:10 29.96981 -95.53908 2020 ft 185 kts 173°
2026-04-25 01:10 29.95705 -95.53691 2024 ft 185 kts 173°
2026-04-25 01:11 29.94446 -95.53481 2211 ft 175 kts 174°
2026-04-25 01:11 29.93333 -95.53267 2794 ft 152 kts 173°
2026-04-25 01:11 29.92293 -95.53061 3161 ft 156 kts 173°
2026-04-25 01:11 29.91229 -95.52850 3683 ft 154 kts 174°
2026-04-25 01:12 29.90159 -95.52629 4106 ft 160 kts 173°
2026-04-25 01:12 29.89038 -95.52427 4559 ft 164 kts 173°
2026-04-25 01:12 29.87897 -95.52208 4982 ft 169 kts 173°
2026-04-25 01:12 29.86718 -95.51986 5391 ft 175 kts 172°
2026-04-25 01:13 29.85510 -95.51756 5834 ft 178 kts 174°
2026-04-25 01:13 29.84269 -95.51523 6263 ft 182 kts 174°
2026-04-25 01:13 29.83101 -95.50943 6721 ft 189 kts 137°
2026-04-25 01:13 29.82554 -95.49598 7201 ft 190 kts 95°
2026-04-25 01:14 29.82597 -95.48101 7647 ft 190 kts 82°
2026-04-25 01:14 29.82757 -95.46579 8074 ft 193 kts 84°
2026-04-25 01:14 29.82873 -95.45029 8498 ft 196 kts 85°
2026-04-25 01:14 29.82976 -95.43437 8941 ft 198 kts 86°
2026-04-25 01:15 29.83081 -95.41864 9372 ft 201 kts 87°
2026-04-25 01:15 29.83186 -95.40247 9794 ft 204 kts 87°
2026-04-25 01:15 29.83292 -95.38610 10204 ft 206 kts 87°
2026-04-25 01:15 29.83400 -95.36961 10626 ft 207 kts 86°
2026-04-25 01:16 29.83507 -95.35305 11042 ft 208 kts 86°
2026-04-25 01:16 29.83616 -95.33635 11449 ft 210 kts 86°
2026-04-25 01:16 29.83723 -95.31957 11882 ft 210 kts 85°
2026-04-25 01:16 29.83833 -95.30276 12296 ft 211 kts 85°
2026-04-25 01:17 29.83942 -95.28583 12706 ft 213 kts 84°
2026-04-25 01:17 29.84051 -95.26878 13124 ft 214 kts 84°
2026-04-25 01:17 29.84162 -95.25163 13536 ft 216 kts 84°
2026-04-25 01:17 29.84273 -95.23431 13911 ft 217 kts 84°
2026-04-25 01:18 29.84384 -95.21688 14276 ft 219 kts 84°
2026-04-25 01:18 29.84496 -95.19931 14634 ft 221 kts 83°
2026-04-25 01:18 29.84609 -95.18162 14986 ft 223 kts 84°
2026-04-25 01:18 29.84722 -95.16372 15344 ft 225 kts 84°
2026-04-25 01:19 29.84836 -95.14568 15703 ft 227 kts 83°
2026-04-25 01:19 29.84953 -95.12747 16063 ft 228 kts 83°
2026-04-25 01:19 29.85067 -95.10941 16414 ft 230 kts 83°
2026-04-25 01:19 29.85181 -95.09092 16768 ft 232 kts 83°
2026-04-25 01:20 29.85299 -95.07228 17123 ft 234 kts 83°
2026-04-25 01:20 29.85417 -95.05347 17479 ft 236 kts 83°
2026-04-25 01:20 29.85535 -95.03454 17833 ft 238 kts 83°
2026-04-25 01:20 29.85655 -95.01541 18172 ft 240 kts 83°
2026-04-25 01:21 29.85774 -94.99621 18476 ft 241 kts 83°
2026-04-25 01:21 29.85894 -94.97686 18778 ft 243 kts 83°
2026-04-25 01:21 29.86016 -94.95742 19077 ft 244 kts 82°
2026-04-25 01:21 29.86137 -94.93784 19369 ft 246 kts 82°
2026-04-25 01:22 29.86257 -94.91811 19662 ft 248 kts 81°
2026-04-25 01:22 29.86380 -94.89829 19958 ft 249 kts 81°
2026-04-25 01:22 29.86502 -94.87833 20247 ft 250 kts 81°
2026-04-25 01:22 29.86625 -94.85826 20543 ft 252 kts 81°
2026-04-25 01:23 29.86748 -94.83809 20829 ft 253 kts 80°
2026-04-25 01:23 29.86872 -94.81778 21123 ft 254 kts 80°
2026-04-25 01:23 29.86996 -94.79741 21400 ft 256 kts 80°
2026-04-25 01:23 29.87119 -94.77690 21680 ft 257 kts 79°
2026-04-25 01:24 29.87245 -94.75629 21958 ft 258 kts 79°
2026-04-25 01:24 29.87369 -94.73562 22236 ft 260 kts 79°
2026-04-25 01:24 29.87494 -94.71484 22514 ft 261 kts 79°
2026-04-25 01:24 29.87619 -94.69393 22783 ft 262 kts 79°
2026-04-25 01:25 29.87745 -94.67288 23052 ft 263 kts 79°
2026-04-25 01:25 29.87871 -94.65184 23318 ft 264 kts 78°
2026-04-25 01:25 29.87997 -94.63065 23550 ft 266 kts 78°
2026-04-25 01:25 29.88123 -94.60934 23757 ft 267 kts 78°
2026-04-25 01:26 29.88250 -94.58790 23964 ft 269 kts 78°
2026-04-25 01:26 29.88377 -94.56638 24178 ft 270 kts 78°
2026-04-25 01:26 29.88504 -94.54472 24385 ft 271 kts 78°
2026-04-25 01:26 29.88632 -94.52304 24584 ft 272 kts 78°
2026-04-25 01:27 29.88760 -94.50118 24785 ft 274 kts 78°
2026-04-25 01:27 29.88890 -94.47925 24833 ft 283 kts 79°
2026-04-25 01:27 29.89025 -94.45623 24840 ft 293 kts 79°
2026-04-25 01:28 29.89303 -94.40787 24844 ft 311 kts 80°
2026-04-25 01:28 29.89448 -94.38271 24844 ft 318 kts 80°
2026-04-25 01:28 29.89595 -94.35703 24841 ft 324 kts 80°
2026-04-25 01:28 29.89745 -94.33092 24842 ft 329 kts 80°
2026-04-25 01:29 29.89896 -94.30438 24840 ft 334 kts 80°
2026-04-25 01:29 29.90048 -94.27753 24835 ft 338 kts 81°
2026-04-25 01:29 29.90201 -94.25047 24841 ft 341 kts 81°
2026-04-25 01:29 29.90355 -94.22311 24841 ft 343 kts 81°
2026-04-25 01:30 29.90510 -94.19557 24833 ft 345 kts 81°
2026-04-25 01:30 29.90664 -94.16786 24829 ft 347 kts 81°
2026-04-25 01:30 29.90820 -94.14005 24824 ft 348 kts 81°
2026-04-25 01:30 29.90974 -94.11251 24823 ft 350 kts 81°
2026-04-25 01:31 29.91130 -94.08414 24823 ft 350 kts 81°
2026-04-25 01:31 29.91282 -94.05644 24824 ft 351 kts 81°
2026-04-25 01:31 29.91438 -94.02832 24822 ft 352 kts 81°
2026-04-25 01:31 29.91592 -94.00014 24823 ft 353 kts 81°
2026-04-25 01:32 29.91745 -93.97192 24823 ft 353 kts 81°
2026-04-25 01:32 29.91899 -93.94367 24823 ft 353 kts 81°
2026-04-25 01:32 29.92052 -93.91535 24824 ft 353 kts 81°
2026-04-25 01:32 29.92205 -93.88713 24828 ft 354 kts 81°
2026-04-25 01:33 29.92356 -93.85877 24832 ft 354 kts 81°
2026-04-25 01:33 29.92507 -93.83051 24862 ft 354 kts 81°
2026-04-25 01:33 29.92659 -93.80217 24862 ft 355 kts 81°
2026-04-25 01:33 29.92809 -93.77378 24859 ft 355 kts 81°
2026-04-25 01:34 29.92960 -93.74534 24867 ft 355 kts 81°
2026-04-25 01:34 29.93110 -93.71689 24867 ft 355 kts 81°
2026-04-25 01:34 29.93258 -93.68847 24865 ft 355 kts 81°
2026-04-25 01:34 29.93406 -93.66007 24864 ft 355 kts 81°
2026-04-25 01:35 29.93554 -93.63161 24863 ft 356 kts 81°
2026-04-25 01:35 29.93701 -93.60320 24862 ft 356 kts 81°
2026-04-25 01:35 29.93846 -93.57506 24860 ft 356 kts 81°
2026-04-25 01:35 29.93992 -93.54662 24859 ft 356 kts 81°
2026-04-25 01:36 29.94138 -93.51812 24857 ft 356 kts 81°
2026-04-25 01:36 29.94283 -93.48970 24857 ft 356 kts 81°
2026-04-25 01:36 29.94427 -93.46121 24856 ft 356 kts 81°
2026-04-25 01:36 29.94571 -93.43273 24855 ft 356 kts 81°
2026-04-25 01:37 29.94713 -93.40429 24855 ft 356 kts 81°
2026-04-25 01:37 29.94856 -93.37575 24855 ft 356 kts 81°
2026-04-25 01:37 29.94999 -93.34728 24856 ft 356 kts 81°
2026-04-25 01:37 29.95139 -93.31883 24857 ft 356 kts 81°
2026-04-25 01:38 29.95280 -93.29032 24855 ft 356 kts 81°
2026-04-25 01:38 29.95420 -93.26190 24855 ft 356 kts 81°
2026-04-25 01:38 29.95559 -93.23342 24854 ft 356 kts 81°
2026-04-25 01:38 29.95697 -93.20487 24854 ft 356 kts 81°
2026-04-25 01:39 29.95835 -93.17646 24854 ft 356 kts 81°
2026-04-25 01:39 29.95974 -93.14797 24855 ft 356 kts 81°
2026-04-25 01:39 29.96111 -93.11942 24855 ft 356 kts 81°
2026-04-25 01:39 29.96247 -93.09093 24857 ft 356 kts 81°
2026-04-25 01:40 29.96382 -93.06242 24856 ft 356 kts 81°
2026-04-25 01:40 29.96518 -93.03393 24860 ft 356 kts 81°
2026-04-25 01:40 29.96651 -93.00579 24861 ft 356 kts 81°
2026-04-25 01:40 29.96785 -92.97725 24862 ft 357 kts 81°
2026-04-25 01:41 29.96919 -92.94868 24865 ft 357 kts 81°
2026-04-25 01:41 29.97051 -92.92004 24867 ft 357 kts 81°
2026-04-25 01:41 29.97248 -92.89164 24872 ft 355 kts 78°
2026-04-25 01:41 29.97491 -92.86328 24873 ft 356 kts 78°
2026-04-25 01:42 29.97714 -92.83481 24874 ft 356 kts 79°
2026-04-25 01:42 29.97937 -92.80638 24875 ft 356 kts 78°
2026-04-25 01:42 29.98171 -92.77798 24875 ft 356 kts 78°
2026-04-25 01:42 29.98403 -92.74956 24875 ft 356 kts 78°
2026-04-25 01:43 29.98631 -92.72120 24876 ft 356 kts 78°
2026-04-25 01:43 29.98858 -92.69273 24876 ft 356 kts 78°
2026-04-25 01:43 29.99085 -92.66432 24879 ft 356 kts 78°
2026-04-25 01:43 29.99314 -92.63587 24877 ft 357 kts 78°
2026-04-25 01:44 29.99541 -92.60738 24877 ft 357 kts 78°
2026-04-25 01:44 29.99767 -92.57884 24875 ft 357 kts 78°
2026-04-25 01:44 29.99993 -92.55035 24877 ft 357 kts 78°
2026-04-25 01:44 30.00215 -92.52217 24877 ft 357 kts 78°
2026-04-25 01:45 30.00440 -92.49368 24874 ft 357 kts 78°
2026-04-25 01:45 30.00664 -92.46513 24872 ft 357 kts 79°
2026-04-25 01:45 30.00888 -92.43653 24870 ft 357 kts 78°
2026-04-25 01:45 30.01111 -92.40803 24869 ft 357 kts 78°
2026-04-25 01:46 30.01333 -92.37950 24870 ft 357 kts 79°
2026-04-25 01:46 30.01555 -92.35093 24868 ft 357 kts 79°
2026-04-25 01:46 30.01776 -92.32243 24866 ft 357 kts 79°
2026-04-25 01:46 30.01997 -92.29381 24865 ft 357 kts 79°
2026-04-25 01:47 30.02217 -92.26524 24862 ft 358 kts 79°
2026-04-25 01:47 30.02436 -92.23667 24861 ft 358 kts 79°
2026-04-25 01:47 30.02656 -92.20804 24860 ft 358 kts 79°
2026-04-25 01:47 30.02874 -92.17946 24858 ft 358 kts 79°
2026-04-25 01:48 30.03091 -92.15096 24858 ft 357 kts 79°
2026-04-25 01:48 30.03309 -92.12233 24857 ft 357 kts 79°
2026-04-25 01:48 30.03522 -92.09408 24857 ft 357 kts 79°
2026-04-25 01:48 30.03741 -92.06520 24858 ft 357 kts 79°
2026-04-25 01:49 30.03956 -92.03662 24857 ft 357 kts 79°
2026-04-25 01:49 30.04170 -92.00801 24857 ft 357 kts 79°
2026-04-25 01:49 30.04312 -91.98907 24866 ft 357 kts 79°
2026-04-25 01:49 30.04526 -91.96056 24866 ft 357 kts 79°
2026-04-25 01:50 30.04738 -91.93199 24866 ft 357 kts 79°
2026-04-25 01:50 30.04950 -91.90343 24871 ft 357 kts 80°
2026-04-25 01:50 30.05162 -91.87485 24867 ft 357 kts 80°
2026-04-25 01:50 30.05442 -91.83695 24874 ft 357 kts 80°
2026-04-25 01:51 30.05583 -91.81769 24874 ft 357 kts 80°
2026-04-25 01:51 30.05793 -91.78912 24874 ft 357 kts 80°
2026-04-25 01:51 30.06001 -91.76056 24874 ft 357 kts 80°
2026-04-25 01:51 30.06209 -91.73200 24874 ft 357 kts 80°
2026-04-25 01:52 30.06418 -91.70344 24874 ft 357 kts 80°
2026-04-25 01:52 30.06626 -91.67489 24874 ft 357 kts 80°
2026-04-25 01:52 30.06831 -91.64632 24874 ft 357 kts 80°
2026-04-25 01:52 30.07035 -91.61814 24874 ft 357 kts 80°
2026-04-25 01:53 30.07240 -91.58959 24875 ft 357 kts 80°
2026-04-25 01:53 30.07444 -91.56103 24873 ft 357 kts 80°
2026-04-25 01:53 30.07647 -91.53247 24873 ft 357 kts 80°
2026-04-25 01:53 30.07849 -91.50386 24876 ft 358 kts 81°
2026-04-25 01:54 30.08055 -91.47525 24873 ft 357 kts 81°
2026-04-25 01:54 30.08259 -91.44668 24873 ft 357 kts 81°
2026-04-25 01:54 30.08459 -91.41812 24873 ft 357 kts 81°
2026-04-25 01:54 30.08659 -91.38948 24873 ft 357 kts 81°
2026-04-25 01:55 30.08860 -91.36083 24873 ft 357 kts 81°
2026-04-25 01:55 30.09060 -91.33235 24873 ft 357 kts 81°
2026-04-25 01:55 30.09259 -91.30373 24874 ft 357 kts 81°
2026-04-25 01:55 30.09457 -91.27518 24875 ft 357 kts 81°
2026-04-25 01:56 30.09655 -91.24661 24875 ft 357 kts 81°
2026-04-25 01:56 30.09852 -91.21802 24877 ft 357 kts 81°
2026-04-25 01:56 30.10048 -91.18950 24877 ft 357 kts 81°
2026-04-25 01:56 30.10245 -91.16093 24877 ft 357 kts 81°
2026-04-25 01:57 30.10634 -91.10384 24884 ft 357 kts 81°
2026-04-25 01:57 30.10826 -91.07559 24884 ft 357 kts 81°
2026-04-25 01:57 30.11019 -91.04702 24890 ft 357 kts 82°
2026-04-25 01:58 30.11210 -91.01852 24886 ft 356 kts 82°
2026-04-25 01:58 30.11403 -90.99001 24887 ft 355 kts 82°
2026-04-25 01:58 30.11592 -90.96158 24886 ft 355 kts 82°
2026-04-25 01:58 30.11515 -90.93296 24880 ft 358 kts 94°
2026-04-25 01:59 30.11262 -90.90446 24885 ft 357 kts 93°
2026-04-25 01:59 30.11052 -90.87585 24869 ft 357 kts 92°
2026-04-25 01:59 30.10840 -90.84737 24880 ft 357 kts 92°
2026-04-25 01:59 30.10609 -90.81876 24881 ft 358 kts 92°
2026-04-25 02:00 30.10375 -90.79016 24886 ft 358 kts 92°
2026-04-25 02:00 30.10150 -90.76156 24892 ft 358 kts 92°
2026-04-25 02:00 30.09923 -90.73292 24894 ft 358 kts 92°
2026-04-25 02:00 30.09692 -90.70428 24895 ft 358 kts 93°
2026-04-25 02:01 30.09462 -90.67563 24900 ft 358 kts 92°
2026-04-25 02:01 30.09242 -90.64697 24900 ft 358 kts 92°
2026-04-25 02:01 30.09020 -90.61832 24899 ft 358 kts 92°
2026-04-25 02:01 30.08793 -90.58967 24899 ft 358 kts 92°
2026-04-25 02:02 30.08566 -90.56102 24899 ft 358 kts 92°
2026-04-25 02:02 30.08339 -90.53231 24899 ft 358 kts 92°
2026-04-25 02:02 30.08113 -90.50373 24899 ft 358 kts 92°
2026-04-25 02:02 30.07884 -90.47504 24898 ft 359 kts 92°
2026-04-25 02:03 30.07656 -90.44637 24898 ft 359 kts 92°
2026-04-25 02:03 30.07430 -90.41813 24897 ft 359 kts 93°
2026-04-25 02:03 30.07196 -90.38909 24897 ft 359 kts 93°
2026-04-25 02:03 30.06970 -90.36081 24906 ft 358 kts 93°
2026-04-25 02:04 30.06738 -90.33216 24906 ft 358 kts 93°
2026-04-25 02:04 30.06506 -90.30354 24906 ft 358 kts 93°
2026-04-25 02:04 30.06274 -90.27492 24906 ft 358 kts 93°
2026-04-25 02:04 30.06043 -90.24633 24904 ft 357 kts 93°
2026-04-25 02:05 30.05809 -90.21776 24906 ft 357 kts 93°
2026-04-25 02:05 30.05575 -90.18917 24905 ft 357 kts 93°
2026-04-25 02:05 30.05342 -90.16069 24905 ft 357 kts 93°
2026-04-25 02:05 30.05102 -90.13171 24088 ft 362 kts 94°
2026-04-25 02:06 30.04808 -90.10309 21933 ft 358 kts 96°
2026-04-25 02:06 30.04552 -90.07484 19800 ft 348 kts 94°
2026-04-25 02:06 30.04377 -90.04765 17792 ft 332 kts 93°